ALPHASAT (I-4A F4)

导读

ALPHASAT (I-4A F4)于2013年7月25日发射,是国际海事卫星组织Inmarsat I-4系列的第四颗卫星,由该组织统筹发射,归入全球移动通信卫星组网布局。卫星入轨后,主要负责补充覆盖欧洲、非洲及中东区域,为海事用户、航空与地面移动通信提供增强型宽带通信服务,提升Inmarsat全球网络的服务容量与抗灾备份能力,巩固了国际海事卫星系统在移动卫星通信领域的服务覆盖优势。

Basic Information
目录编号:
39215
目录名称:
ALPHASAT (I-4A F4)
国际标识:
2013-038A
轨道中心:
EARTH
卫星名称:
ALPHASAT (I-4A F4)
卫星全名:
--
卫星状态:
在轨 (已飞行4710 天)
发射日期:
2013-07-25 UTC
国别 :
(Inmarsat)
星等 :
--
Orbit Information
数据来源 国际轨道数据 AOE轨道数据
星历时间 2026-06-17T02:55:12+0800
1天前
查看轨道信息
2026-06-17T12:00:00+0800
19小时前
查看轨道信息
半长轴 42164.252km 42163.943km
偏心率 0.0001634 0.0001686
轨道倾角 2.999° 2.999°
近地点辐角 91.996° 94.416°
升交点赤经 1.312° 1.389°
平近点角 120.400° 254.481°
近地点 35779.225km 35778.697km
远地点 35793.005km 35792.915km
周期 1436.072分钟 1436.057分钟
每日圈数 1.002735 1.002746
Detailed Information
使用方式:
暂无
2D Orbit Map
3D Orbit Map
Orbit Altitude Analysis Chart
Orbit Inclination Analysis Chart
Orbit Comprehensive Analysis Chart
View Comprehensive Chart